Location: Vihti�l�
(61.3833°N, 23.0667°E)
Time: 05:41:54
(UTC+00:00)

FENGYUN 3A - Pass Details

Date: 29 November 2020
Orbit: 823 x 837 km, 98.4° (Epoch: 22 January)

Event Time Altitude Azimuth Distance (km) Brightness Sun altitude
Rises 04:46:43 0° 19° (NNE) 3,401 6.9 -15.3°
Reaches altitude 10° 04:49:12 10° 12° (NNE) 2,461 6.1 -15.0°
Maximum altitude 04:54:12 39° 306° (NW) 1,245 4.1 -14.4°
Drops below altitude 10° 04:59:10 10° 239° (WSW) 2,441 5.7 -13.8°
Sets 05:01:39 0° 232° (SW) 3,369 6.5 -13.6°
